Regional Weather Roundup
Issued by NWS

Home | Current Version | Previous Version | Graphics & Text | Print | Product List | Glossary On
Versions: 1 2 3 4 5 6 7 8 9 10 11 12 13 14 15 16 17 18 19 20 21 22 23 24 25 26 27 28 29 30 31 32 33 34 35 36 37 38 39 40 41 42 43 44 45 46 47 48 49 50
000
ASUS43 KFSD 261210
RWRSD

WEATHER ROUNDUP FOR SOUTH DAKOTA
NATIONAL WEATHER SERVICE SIOUX FALLS SD
700 AM CDT FRI MAY 26 2017

NOTE: "FAIR" INDICATES FEW OR NO CLOUDS BELOW 12,000 FEET WITH NO
SIGNIFICANT WEATHER AND/OR OBSTRUCTIONS TO VISIBILITY.


SDZ001>005-009-010-012>017-261300-
NORTHWEST AND NORTH CENTRAL SOUTH DAKOTA

CITY           SKY/WX    TMP DP  RH WIND       PRES   REMARKS
BUFFALO          N/A     41  37  86 W12       29.78R
FAITH            N/A     46  39  76 W14       29.84R
MOBRIDGE       MOCLDY    49  41  74 W10       29.75R
$$

SDZ012>016-024>037-041>051-057-063-072>074-261300-
SOUTHWEST AND SOUTH CENTRAL SOUTH DAKOTA

CITY           SKY/WX    TMP DP  RH WIND       PRES   REMARKS
RAPID CTY ARPT CLEAR     45  33  63 CALM      29.89R
PIERRE         CLEAR     50  41  71 W16       29.81R
CUSTER         CLOUDY    42  27  55 NW6       29.93R
ELLSWORTH AFB  CLEAR     45  34  66 W9        29.88R
PHILIP         CLEAR     43  39  86 NW7       29.87R
PINE RIDGE     CLEAR     40  39  97 CALM      29.91R
SPEARFISH      FAIR      41  34  75 CALM      29.91S
WINNER         FAIR      50  42  74 NW10      29.84R
$$

SDZ004>011-016>023-039-040-261300-
NORTHEAST SOUTH DAKOTA

CITY           SKY/WX    TMP DP  RH WIND       PRES   REMARKS
ABERDEEN       CLEAR     51  42  71 W10       29.74R
WATERTOWN      CLOUDY    51  45  79 W10       29.73R
BROOKINGS      PTSUNNY   51  47  86 NW8       29.74R
SISSETON         N/A     55  47  74 NW9       29.69R
$$

SDZ017-020-022-023-036>040-048>070-261300-
SOUTHEAST SOUTH DAKOTA

CITY           SKY/WX    TMP DP  RH WIND       PRES   REMARKS
SIOUX FALLS    CLOUDY    55  50  83 NW6       29.74R
HURON          PTCLDY    51  45  79 NW14      29.77R
CHAMBERLAIN    PTCLDY    51  45  80 W9        29.83R
MITCHELL       MOCLDY    53  46  77 NW10      29.78R
YANKTON        CLOUDY    55  47  74 NW15      29.76R
$$

ABBREVIATIONS USED IN REMARKS
   TC - TEMPERATURE IN CELSIUS
  WCI - WIND CHILL INDEX
   HX - HEAT INDEX
  VSB - VISIBILITY




USA.gov is the U.S. government's official web portal to all federal, state and local government web resources and services.